Regional Weather Roundup
Issued by NWS

Home | Current Version | Previous Version | Graphics & Text | Print | Product List | Glossary On
Versions: 1 2 3 4 5 6 7 8 9 10 11 12 13 14 15 16 17 18 19 20 21 22 23 24 25 26 27 28 29 30 31 32 33 34 35 36 37 38 39 40 41 42 43 44 45 46 47 48 49 50
000
ASUS45 KBOI 221410
RWRID
WEATHER ROUNDUP FOR IDAHO
NATIONAL WEATHER SERVICE BOISE ID
800 AM MDT TUE JUL 22 2014

NOTE: "FAIR" INDICATES FEW OR NO CLOUDS BELOW 12000 FEET
WITH NO SIGNIFICANT WEATHER AND/OR OBSTRUCTIONS TO VISIBILITY

IDZ012-014-221500-
SOUTHWEST IDAHO


CITY           SKY/WX    TMP DP  RH WIND       PRES   REMARKS
BOISE          SUNNY     71  53  52 SE10      30.12R
CALDWELL       SUNNY     66  52  59 CALM      30.14R
MOUNTAIN HOME  MOSUNNY   66  56  71 SE12      30.14R
$$

IDZ016-017-221500-
SOUTHCENTRAL IDAHO


CITY           SKY/WX    TMP DP  RH WIND       PRES   REMARKS
BURLEY         SUNNY     64  57  78 CALM      30.20S
JEROME         SUNNY     64  55  72 NE8       30.21R
TWIN FALLS     SUNNY     68  50  52 CALM      30.21R
$$

IDZ019>023-221500-
SOUTHEAST IDAHO


CITY           SKY/WX    TMP DP  RH WIND       PRES   REMARKS
IDAHO FALLS    MOSUNNY   63  53  70 CALM      30.27R
POCATELLO      SUNNY     65  54  67 CALM      30.25R
REXBURG        MOSUNNY   59  50  72 CALM      30.28R
$$

IDZ006-010-011-018-031-032-221500-
CENTRAL IDAHO MOUNTAINS


CITY           SKY/WX    TMP DP  RH WIND       PRES   REMARKS
MCCALL         MOSUNNY   61  53  75 CALM      30.21R
HAILEY         MOSUNNY   57  48  72 NW9       30.30R
STANLEY          N/A     50  44  80 E6        30.34R
SALMON         MOSUNNY   64  52  63 N3        30.18R
CHALLIS        SUNNY     63  48  58 CALM      30.25R
$$

IDZ002-004-006-007-026-221500-
NORTHERN IDAHO


CITY           SKY/WX    TMP DP  RH WIND       PRES   REMARKS
LEWISTON       CLOUDY    69  47  45 E7        30.03R
LOWELL           N/A     62  53  72 CALM      30.08R
COEUR D`ALENE  CLOUDY    61  52  72 MISG      30.08R
MULLAN PASS    CLOUDY    55  33  43 S8        30.23R
$$



USA.gov is the U.S. government's official web portal to all federal, state and local government web resources and services.